Pagina principale
METAR-TAF:

METAR-TAF

Aeroporti :

Francis S. Gabreski Airport

Westhampton Beach, New York, Stati Uniti

latitudine: 40-51-03N, longitudine: 072-37-14W, altezza: 20 m

Osservazione

Il bollettino è stato emesso 1 ora e 2 minuti fa, alle 19:53 UTC
Vento 8 kt da sud con raffiche fino a 16 kt
Temperature 14°C
Umidità 82%
Pressione 1018 hPa
Visibilità: 16.1 km
Cielo sereno

METAR: KFOK 211953Z 19008G16KT 10SM CLR 14/11 A3006 RMK AO2 SLP180 T01390111

Ora: 16:55 (20:55 UTC)


TAF: mancante

Osservazioni e previsioni meteorologiche di più di 4000 aeroporti (messaggi METAR e TAF).

Le stazioni disponibili sono rappresentate dai dischi gialli e rossi sulla carta.

Puntare il mouse per vedere il nome della stazione.

Clicca sopra per visualizzare le osservazioni e previsioni meteorologiche.

Per cambiare la mappa : fare clic sui pulsanti verdi con una croce nera per ingrandire, il pulsante verde con un trattino per diminuire, o sulla freccia verde per le mappe adiacenti.


METAR-TAF: